Hourly Data Report for January 29, 2012

HALIFAX STANFIELD INT'L A
NOVA SCOTIA

44°52'48.060" N
63°30'00.050" W
145.40 m
8202250
71395
YHZ

Download Data

Hourly Data (January 2012)
Hourly Data Report for January 29, 2012
TIME
LST
Temp Definition
°C
Dew Point Definition
°C
Rel Hum Definition
%
Precip. Amount Definition
mm

Wind Dir Definition
10's deg

Wind Spd Definition
km/h
Visibility Definition
km
Stn Press Definition
kPa
Hmdx Definition


Wind Chill Definition


Weather Definition


00:00 -4.5 -5.9 90   14 9 24.1 99.54   -8 Mainly Clear
01:00 -4.8 -6.0 91   18 13 24.1 99.56   -10 Mainly Clear
02:00 -3.0 -4.8 87   18 15 24.1 99.54   -8 Mostly Cloudy
03:00 -2.2 -4.1 87   16 6 24.1 99.48   -5 Mostly Cloudy
04:00 -2.0 -3.7 88   13 19 24.1 99.29   -8 Mostly Cloudy
05:00 -1.6 -3.0 90   16 15 24.1 99.28   -6 Cloudy
06:00 -0.2 -0.9 95   14 17 9.7 99.12   -5 Freezing Drizzle,Snow
07:00 1.9 1.5 97   19 26 9.7 99.05     Snow Showers
08:00 2.7 2.3 97   21 24 24.1 99.07     Cloudy
09:00 3.1 2.4 95   21 26 19.3 99.06     Mostly Cloudy
10:00 3.7 1.2 84   24 33 24.1 99.10     Mostly Cloudy
11:00 1.7 -0.9 83   27 20 19.3 99.21     Snow Pellets
12:00 1.0 -0.9 87   27 30 0.4 99.24     Heavy Snow Pellets
13:00 3.3 -2.9 64   27 22 24.1 99.22     Mainly Clear
14:00 3.7 -4.5 55   26 24 24.1 99.19     Mainly Clear
15:00 4.0 -6.8 45   26 33 24.1 99.18     Mainly Clear
16:00 3.0 -8.8 42   27 24 24.1 99.24     Mainly Clear
17:00 1.9 -9.0 44   27 20 24.1 99.36     Mainly Clear
18:00 0.5 -8.7 50   26 20 24.1 99.43     Mainly Clear
19:00 -0.5 -8.4 55   23 15 24.1 99.52   -5 Mainly Clear
20:00 -0.6 -8.2 56   24 19 24.1 99.56   -6 Mainly Clear
21:00 -0.7 -7.8 59   24 19 24.1 99.59   -6 Mainly Clear
22:00 -1.6 -7.6 64   24 15 24.1 99.66   -6 Mainly Clear
23:00 -1.9 -7.1 68   23 13 24.1 99.67   -6 Mainly Clear

Notes on Data Quality.

Legend

  • E = Estimated
  • M = Missing
  • NA = Not Available*
  • [empty] = Indicates an unobserved value
Date modified: